International Skating Union - Official Site

ISU European Championships 2018
January 5-7, 2018

Draw | Lap Times | Index

Referee: Berri  DE JONGE  (NED)
Starter: Roman  DANILOV  (RUS)
StartTime: EndTime: Air Temp: Ice Temp: Humidity:
16:29 15.1 ℃ -6.2 ℃ 39%
Result Team Pursuit Ladies
Rankings as of Jan 7 2018 4:43PM
Rank: No.: Team: Nation: Time: Behind:
Total 5
1 15 Netherlands (124) Marrit Leenstra (125) Lotte van Beek (128) Melissa Wijfje (122) Linda de Vries NED NED 2:59.340.5 - 19.00 - (19.0)
1.0 - 32.97 - (13.9)
1.5 - 47.01 - (14.0)
2.0 - 1:01.28 - (14.2)
2.5 - 1:15.80 - (14.5)
3.0 - 1:30.06 - (14.2)
3.5 - 1:44.38 - (14.3)
4.0 - 1:59.01 - (14.6)
4.5 - 2:13.95 - (14.9)
5.0 - 2:28.99 - (15.0)
5.5 - 2:44.27 - (15.2)
6.0 - 2:59.34 - (15.0)
2 20 Russia (145) Olga Graf (148) Yekaterina Shikhova (150) Natalia Voronina (151) Anna Yurakova RUS RUS 3:01.880.5 - 19.46 - (19.4)
1.0 - 34.12 - (14.6)
1.5 - 48.43 - (14.3)
2.0 - 1:02.87 - (14.4)
2.5 - 1:17.07 - (14.1)
3.0 - 1:31.68 - (14.6)
3.5 - 1:46.61 - (14.9)
4.0 - 2:01.75 - (15.1)
4.5 - 2:16.85 - (15.0)
5.0 - 2:31.96 - (15.1)
5.5 - 2:46.72 - (14.7)
6.0 - 3:01.88 - (15.1)
2.54
3 10 Germany (112) Roxane Dufter (113) Gabriele Hirschbichler (114) Michelle Uhrig GER GER 3:05.030.5 - 19.41 - (19.4)
1.0 - 33.56 - (14.1)
1.5 - 47.40 - (13.8)
2.0 - 1:01.72 - (14.3)
2.5 - 1:16.21 - (14.4)
3.0 - 1:31.09 - (14.8)
3.5 - 1:46.20 - (15.1)
4.0 - 2:01.27 - (15.0)
4.5 - 2:16.83 - (15.5)
5.0 - 2:32.33 - (15.5)
5.5 - 2:48.37 - (16.0)
6.0 - 3:05.03 - (16.5)
5.69
4 18 Poland (134) Katarzyna Bachleda-Curus (136) Natalia Czerwonka (138) Katarzyna Wozniak (141) Luiza Zlotkowska POL POL 3:05.060.5 - 19.24 - (19.2)
1.0 - 33.63 - (14.3)
1.5 - 48.13 - (14.5)
2.0 - 1:02.59 - (14.4)
2.5 - 1:17.41 - (14.8)
3.0 - 1:31.93 - (14.5)
3.5 - 1:46.71 - (14.7)
4.0 - 2:01.90 - (15.1)
4.5 - 2:17.61 - (15.7)
5.0 - 2:33.23 - (15.6)
5.5 - 2:49.11 - (15.8)
6.0 - 3:05.06 - (15.9)
5.72
5 7 Czech Republic (105) Eliska Drimalova (107) Natálie Kerschbaummayr (108) Nikola Zdráhalova CZE CZE 3:19.720.5 - 20.49 - (20.4)
1.0 - 36.17 - (15.6)
1.5 - 51.44 - (15.2)
2.0 - 1:06.96 - (15.5)
2.5 - 1:22.42 - (15.4)
3.0 - 1:38.30 - (15.8)
3.5 - 1:54.56 - (16.2)
4.0 - 2:11.37 - (16.8)
4.5 - 2:28.13 - (16.7)
5.0 - 2:45.00 - (16.8)
5.5 - 3:02.14 - (17.1)
6.0 - 3:19.72 - (17.5)
20.38